EW4781 Weather Reports


time (UTC)temp
C
wind
direction
speed
KPH
gust
KPH
rain 1hr
cm
rain 24hr
cm
rain mn
cm
humidity
%
barometer
mb
20260906215344 18 43 8.0 9.7 0.00 0.03 0.03 71 1038.0
20260906214842 18 2 3.2 4.8 0.00 0.03 0.03 73 1037.9
20260906214342 18 78 4.8 4.8 0.00 0.03 0.03 73 1037.9
20260906213841 20 37 8.0 9.7 0.00 0.03 0.03 69 1038.0
20260906213336 20 14 4.8 8.0 0.00 0.03 0.03 70 1037.9
20260906212833 20 52 1.6 3.2 0.00 0.03 0.03 69 1037.9
20260906212329 19 46 1.6 1.6 0.00 0.03 0.03 71 1038.2
20260906211828 19 34 8.0 11.3 0.00 0.03 0.03 70 1038.0
20260906211324 20 332 6.4 9.7 0.00 0.03 0.03 70 1038.0
20260906210818 19 9 6.4 9.7 0.00 0.03 0.03 72 1038.0
20260906210313 18 24 3.2 4.8 0.00 0.03 0.03 72 1037.9
20260906205808 19 42 3.2 3.2 0.00 0.03 0.03 70 1037.9
20260906205306 20 93 3.2 3.2 0.00 0.03 0.03 70 1037.8
20260906204800 19 32 4.8 4.8 0.00 0.03 0.03 72 1037.9
20260906204259 18 2 4.8 4.8 0.00 0.03 0.03 74 1037.9
20260906203758 18 51 3.2 4.8 0.00 0.03 0.03 73 1037.6
20260906203254 20 54 3.2 4.8 0.00 0.03 0.03 71 1037.6
20260906202751 18 57 1.6 3.2 0.00 0.03 0.03 75 1037.9
20260906202250 20 34 4.8 4.8 0.00 0.03 0.03 72 1037.7
20260906201745 20 33 4.8 8.0 0.00 0.03 0.03 67 1037.8
20260906201244 18 307 1.6 3.2 0.00 0.03 0.03 73 1037.7
20260906200740 19 58 1.6 3.2 0.00 0.03 0.03 73 1037.6
20260906200236 21 313 8.0 11.3 0.00 0.03 0.03 67 1037.8
20260906195731 20 52 3.2 3.2 0.00 0.03 0.03 69 1037.6
20260906195228 19 52 4.8 9.7 0.00 0.03 0.03 69 1037.7
20260906194723 20 41 1.6 3.2 0.00 0.03 0.03 67 1037.7
20260906194219 21 344 8.0 12.9 0.00 0.03 0.03 69 1037.8
20260906193714 21 45 3.2 3.2 0.00 0.03 0.03 66 1037.7
20260906193208 20 38 1.6 1.6 0.00 0.03 0.03 67 1037.7
20260906192704 20 49 3.2 4.8 0.00 0.03 0.03 69 1037.5
20260906192204 21 352 4.8 4.8 0.00 0.03 0.03 66 1037.5
20260906191658 21 56 3.2 3.2 0.00 0.03 0.03 68 1037.5
20260906191158 21 71 3.2 4.8 0.00 0.03 0.03 67 1037.5
20260906190652 21 46 1.6 3.2 0.00 0.03 0.03 69 1037.4
20260906190147 21 57 1.6 3.2 0.00 0.03 0.03 71 1037.3
20260906185646 20 53 3.2 3.2 0.00 0.03 0.03 71 1037.6
20260906185145 20 59 1.6 1.6 0.00 0.03 0.03 71 1037.5
20260906184640 19 56 0.0 1.6 0.00 0.03 0.03 75 1037.8
20260906184136 19 52 1.6 1.6 0.00 0.03 0.03 74 1037.7
20260906183631 20 24 6.4 8.0 0.00 0.03 0.03 72 1037.5
20260906183127 20 295 6.4 8.0 0.00 0.03 0.03 71 1037.6
20260906182627 21 65 0.0 0.0 0.00 0.03 0.03 70 1037.7
20260906182123 20 42 1.6 3.2 0.00 0.03 0.03 72 1037.8
20260906181618 19 51 3.2 3.2 0.00 0.03 0.03 73 1037.8
20260906181114 20 25 3.2 4.8 0.00 0.03 0.03 74 1037.6
20260906180609 21 43 4.8 4.8 0.00 0.03 0.03 73 1037.6
20260906180103 20 57 0.0 1.6 0.00 0.03 0.03 74 1037.7
20260906175602 20 56 4.8 8.0 0.00 0.03 0.03 74 1037.7
20260906175056 18 61 0.0 0.0 0.00 0.03 0.03 76 1037.7
20260906174554 18 47 6.4 8.0 0.00 0.03 0.03 76 1037.8
20260906174050 20 72 3.2 4.8 0.00 0.03 0.03 74 1037.8
20260906173544 20 36 1.6 4.8 0.00 0.03 0.03 76 1037.8
20260906173041 19 44 4.8 8.0 0.00 0.03 0.03 76 1037.8
20260906172534 19 59 1.6 3.2 0.00 0.03 0.03 76 1037.6
20260906172030 20 42 3.2 3.2 0.00 0.03 0.03 77 1037.8
20260906171525 19 14 8.0 9.7 0.00 0.03 0.03 78 1037.9
20260906171021 18 19 6.4 9.7 0.00 0.03 0.03 80 1037.6
20260906170516 18 49 3.2 3.2 0.00 0.03 0.03 80 1037.8
20260906170015 19 44 4.8 4.8 0.00 0.03 0.03 78 1037.7
20260906165512 20 44 3.2 3.2 0.00 0.03 0.03 80 1038.0
20260906165007 18 58 0.0 1.6 0.00 0.03 0.03 79 1037.8
20260906164506 18 65 3.2 3.2 0.00 0.03 0.03 79 1037.8
20260906164003 20 54 1.6 3.2 0.00 0.03 0.03 76 1037.6
20260906163458 20 66 1.6 1.6 0.00 0.03 0.03 77 1037.8
20260906162956 18 59 1.6 1.6 0.00 0.03 0.03 80 1037.6
20260906162455 18 48 3.2 3.2 0.00 0.03 0.03 80 1037.8
20260906161949 20 62 1.6 3.2 0.00 0.03 0.03 75 1037.9
20260906161444 20 340 3.2 8.0 0.00 0.03 0.03 78 1037.7
20260906160943 18 59 1.6 1.6 0.00 0.03 0.03 81 1037.8
20260906160437 18 357 8.0 12.9 0.00 0.03 0.03 82 1037.9
20260906155935 18 59 3.2 4.8 0.00 0.03 0.03 80 1037.9
20260906155434 19 8 4.8 8.0 0.00 0.03 0.03 81 1037.8
20260906154930 18 55 3.2 3.2 0.00 0.03 0.03 81 1037.8
20260906154425 20 85 3.2 3.2 0.00 0.03 0.03 81 1037.7
20260906153923 18 55 3.2 3.2 0.00 0.03 0.03 84 1037.9
20260906153422 18 55 3.2 3.2 0.00 0.03 0.03 85 1037.9
20260906152918 17 55 1.6 3.2 0.00 0.03 0.03 88 1037.8
20260906152413 17 32 3.2 4.8 0.00 0.03 0.03 88 1037.8
20260906151912 17 37 8.0 9.7 0.00 0.03 0.03 87 1038.0
20260906151408 17 58 1.6 3.2 0.00 0.03 0.03 88 1037.8
20260906150903 17 60 3.2 3.2 0.00 0.03 0.03 90 1037.7
20260906150358 17 52 3.2 3.2 0.00 0.03 0.03 92 1037.9
20260906145857 17 53 3.2 3.2 0.00 0.03 0.03 92 1037.8
20260906145351 17 49 4.8 8.0 0.00 0.03 0.03 92 1037.6
20260906144845 17 53 3.2 3.2 0.00 0.03 0.03 93 1037.6
20260906144341 16 55 0.0 1.6 0.00 0.03 0.03 94 1037.6
20260906143841 17 65 0.0 1.6 0.00 0.03 0.03 94 1037.6
20260906143337 16 61 1.6 1.6 0.00 0.03 0.03 95 1037.5
20260906142832 16 59 1.6 1.6 0.00 0.03 0.03 96 1037.3
20260906142327 16 56 0.0 1.6 0.00 0.03 0.03 96 1037.7
20260906141827 16 55 3.2 3.2 0.00 0.03 0.03 96 1037.5
20260906141322 16 19 4.8 11.3 0.00 0.03 0.03 97 1037.5
20260906140820 16 36 3.2 3.2 0.00 0.03 0.03 97 1037.5
20260906140315 16 54 4.8 4.8 0.00 0.03 0.03 98 1037.5
20260906135813 16 50 1.6 3.2 0.00 0.03 0.03 98 1037.5
20260906135308 16 34 4.8 4.8 0.00 0.03 0.03 98 1037.3
20260906134803 16 55 3.2 3.2 0.00 0.03 0.03 99 1037.0
20260906134258 16 61 1.6 3.2 0.00 0.03 0.03 99 1037.0
20260906133754 16 58 1.6 1.6 0.00 0.03 0.03 99 1037.3
20260906133249 16 48 3.2 3.2 0.00 0.03 0.03 98 1037.1
20260906132745 16 58 0.0 1.6 0.18 0.03 0.03 98 1037.0
20260906132240 16 51 1.6 3.2 0.00 0.00 0.00 97 1037.0
20260906131735 16 59 1.6 1.6 0.00 0.00 0.00 97 1037.1
20260906131225 16 30 4.8 8.0 0.00 0.00 0.00 96 1037.1
20260906130720 16 45 4.8 8.0 0.00 0.00 0.00 96 1037.4
20260906130215 16 51 1.6 1.6 0.00 0.00 0.00 97 1037.0
20260906125714 16 51 0.0 0.0 0.00 0.00 0.00 97 1036.8
20260906125212 16 55 1.6 3.2 0.00 0.00 0.00 97 1036.8
20260906124707 16 40 1.6 1.6 0.00 0.00 0.00 97 1037.1
20260906124203 16 58 0.0 0.0 0.00 0.00 0.00 98 1036.9
20260906123701 16 63 0.0 0.0 0.00 0.00 0.00 98 1036.7
20260906123157 16 56 0.0 0.0 0.00 0.00 0.00 98 1036.6
20260906122656 15 57 0.0 1.6 0.00 0.00 0.00 98 1036.7
20260906122152 15 60 0.0 0.0 0.00 0.00 0.00 99 1036.8
20260906121648 15 58 0.0 0.0 0.00 0.00 0.00 99 1037.0
20260906121144 15 56 4.8 4.8 0.00 0.00 0.00 99 1036.7
20260906120640 15 60 1.6 3.2 0.00 0.00 0.00 99 1036.7
20260906120137 15 57 1.6 1.6 0.00 0.00 0.00 99 1036.5
20260906115637 15 58 0.0 0.0 0.00 0.00 0.00 99 1036.3
20260906115132 15 57 1.6 1.6 0.00 0.00 0.00 99 1036.3
20260906114631 15 55 0.0 1.6 0.00 0.00 0.00 99 1036.4
20260906114121 15 68 0.0 0.0 0.00 0.00 0.00 99 1036.3
20260906113621 15 61 0.0 0.0 0.00 0.00 0.00 99 1036.3
20260906113121 15 65 0.0 0.0 0.00 0.00 0.00 99 1036.2
20260906112620 15 41 3.2 3.2 0.00 0.00 0.00 99 1036.3
20260906112118 15 59 0.0 0.0 0.00 0.00 0.00 99 1036.2
20260906111616 15 58 1.6 1.6 0.00 0.00 0.00 99 1036.1
20260906111112 15 61 1.6 1.6 0.00 0.00 0.00 99 1036.0
20260906110612 15 52 3.2 3.2 0.00 0.00 0.00 99 1036.0
20260906110106 15 58 1.6 1.6 0.00 0.00 0.00 99 1036.0
20260906105600 15 60 1.6 3.2 0.00 0.00 0.00 99 1035.9
20260906105057 15 54 3.2 3.2 0.00 0.00 0.00 99 1036.2
20260906104555 15 56 1.6 3.2 0.00 0.00 0.00 99 1035.8
20260906104050 15 58 1.6 1.6 0.00 0.00 0.00 99 1035.8
20260906103548 15 59 0.0 0.0 0.00 0.00 0.00 99 1035.7
20260906103044 15 56 0.0 1.6 0.00 0.00 0.00 99 1035.7
20260906102543 15 57 0.0 0.0 0.00 0.00 0.00 99 1036.1
20260906102039 15 55 1.6 1.6 0.00 0.00 0.00 99 1035.9
20260906101533 15 65 0.0 0.0 0.00 0.00 0.00 99 1035.7
20260906101028 15 60 0.0 0.0 0.00 0.00 0.00 99 1035.8
20260906100523 15 47 3.2 3.2 0.00 0.00 0.00 99 1035.8
20260906100018 15 58 0.0 0.0 0.00 0.00 0.00 99 1035.7
20260906095513 15 57 1.6 1.6 0.00 0.00 0.00 99 1035.5
20260906095008 15 58 0.0 1.6 0.00 0.00 0.00 99 1035.7
20260906094507 15 58 1.6 1.6 0.00 0.00 0.00 99 1035.3
20260906094003 15 53 1.6 1.6 0.00 0.00 0.00 99 1035.5
20260906093459 15 25 4.8 4.8 0.00 0.00 0.00 99 1035.3
20260906092954 15 55 1.6 3.2 0.00 0.00 0.00 99 1035.2
20260906092454 14 54 1.6 1.6 0.00 0.00 0.00 99 1035.0
20260906091949 14 44 0.0 1.6 0.00 0.00 0.00 99 1035.1
20260906091444 13 43 0.0 0.0 0.00 0.00 0.00 99 1035.0
20260906090941 14 43 0.0 0.0 0.00 0.00 0.00 99 1034.9
20260906090436 14 43 0.0 0.0 0.00 0.00 0.00 99 1035.0
20260906085930 14 45 0.0 0.0 0.00 0.00 0.00 99 1034.8
20260906085429 14 44 0.0 0.0 0.00 0.00 0.00 99 1034.9
20260906084928 14 47 0.0 0.0 0.00 0.00 0.00 99 1034.8
20260906084424 15 50 0.0 0.0 0.00 0.00 0.00 99 1034.7
20260906083923 14 53 0.0 0.0 0.00 0.00 0.00 99 1034.7
20260906083418 15 42 1.6 1.6 0.00 0.00 0.00 99 1034.6
20260906082917 15 36 1.6 3.2 0.00 0.00 0.00 99 1034.7
20260906082413 15 49 1.6 1.6 0.00 0.00 0.00 99 1034.6
20260906081909 15 44 1.6 1.6 0.00 0.00 0.00 99 1034.9
20260906081404 15 51 0.0 1.6 0.00 0.00 0.00 99 1034.5
20260906080900 15 42 1.6 1.6 0.00 0.00 0.00 99 1034.7
20260906080356 15 46 0.0 0.0 0.00 0.00 0.00 99 1034.5
20260906075855 15 46 0.0 0.0 0.00 0.00 0.00 99 1034.4
20260906075350 15 46 0.0 0.0 0.00 0.00 0.00 99 1034.6
20260906074846 15 46 1.6 1.6 0.00 0.00 0.00 99 1034.6
20260906074340 14 46 0.0 0.0 0.00 0.00 0.00 99 1034.6
20260906073838 14 46 0.0 0.0 0.00 0.00 0.00 99 1034.5
20260906073334 15 46 0.0 0.0 0.00 0.00 0.00 99 1034.5
20260906072830 14 46 0.0 0.0 0.00 0.00 0.00 99 1034.7
20260906072326 15 46 0.0 0.0 0.00 0.00 0.00 99 1034.8
20260906071822 15 46 0.0 0.0 0.00 0.00 0.00 99 1034.6
20260906071322 15 47 0.0 0.0 0.00 0.00 0.00 99 1034.7
20260906070818 15 46 0.0 0.0 0.00 0.00 0.00 99 1034.6
20260906070313 15 46 0.0 1.6 0.00 0.00 0.00 99 1034.6
20260906065808 15 44 1.6 1.6 0.00 0.00 0.00 99 1034.5
20260906065305 15 47 0.0 0.0 0.00 0.00 0.00 99 1034.4
20260906064759 15 57 0.0 1.6 0.00 0.00 0.00 98 1034.6
20260906064255 15 50 1.6 1.6 0.00 0.00 0.00 98 1034.6
20260906063749 15 47 1.6 1.6 0.00 0.00 0.00 97 1034.6
20260906063245 16 43 1.6 1.6 0.00 0.00 0.00 97 1034.9
20260906062740 16 55 0.0 1.6 0.00 0.00 0.00 97 1034.6
20260906062239 16 51 0.0 1.6 0.00 0.00 0.00 96 1034.5
20260906061735 16 48 1.6 1.6 0.00 0.00 0.00 96 1034.8
20260906061231 16 57 0.0 1.6 0.00 0.00 0.00 96 1034.6
20260906060726 16 45 3.2 3.2 0.00 0.00 0.00 97 1034.6
20260906060224 16 55 1.6 1.6 0.00 0.00 0.00 97 1034.7
20260906055719 16 55 3.2 3.2 0.00 0.00 0.00 96 1034.8
20260906055214 15 45 1.6 3.2 0.00 0.00 0.00 96 1034.9
20260906054709 15 36 1.6 3.2 0.00 0.00 0.00 96 1034.8
20260906054204 15 47 0.0 1.6 0.00 0.00 0.00 95 1034.6
20260906053701 15 47 1.6 1.6 0.00 0.00 0.00 95 1034.8
20260906053156 15 47 1.6 1.6 0.00 0.00 0.00 95 1035.0
20260906052651 15 48 0.0 1.6 0.00 0.00 0.00 96 1034.9
20260906052148 15 48 1.6 1.6 0.00 0.00 0.00 96 1034.7
20260906051644 15 50 1.6 1.6 0.00 0.00 0.00 96 1034.8
20260906051143 15 50 1.6 1.6 0.00 0.00 0.00 97 1034.9
20260906050639 15 49 0.0 0.0 0.00 0.00 0.00 98 1034.8
20260906050134 15 49 0.0 0.0 0.00 0.00 0.00 98 1034.9
20260906045632 15 49 0.0 0.0 0.00 0.00 0.00 98 1034.9
20260906045128 15 49 0.0 0.0 0.00 0.00 0.00 98 1034.9
20260906044624 15 53 1.6 1.6 0.00 0.00 0.00 98 1035.0
20260906044119 15 56 0.0 0.0 0.00 0.00 0.00 98 1034.8
20260906043615 15 56 0.0 0.0 0.00 0.00 0.00 98 1034.7
20260906043110 15 56 0.0 0.0 0.00 0.00 0.00 98 1034.6
20260906042609 15 56 0.0 0.0 0.00 0.00 0.00 98 1034.7
20260906042104 15 56 0.0 0.0 0.00 0.00 0.00 98 1034.8
20260906041600 15 56 0.0 0.0 0.00 0.00 0.00 98 1034.8
20260906041055 14 56 0.0 0.0 0.00 0.00 0.00 97 1034.6
20260906040550 15 56 0.0 0.0 0.00 0.00 0.00 97 1034.8
20260906040045 14 56 0.0 0.0 0.00 0.00 0.00 97 1034.5
20260906035541 14 55 0.0 0.0 0.00 0.00 0.00 97 1034.7
20260906035037 14 56 0.0 0.0 0.00 0.00 0.00 96 1034.6
20260906034536 14 56 0.0 0.0 0.00 0.00 0.00 96 1034.8
20260906034031 15 55 0.0 0.0 0.00 0.00 0.00 96 1034.7
20260906033526 15 56 0.0 0.0 0.00 0.00 0.00 96 1034.5
20260906033022 15 55 0.0 1.6 0.00 0.00 0.00 95 1034.6
20260906032519 15 56 0.0 0.0 0.00 0.00 0.00 95 1034.4
20260906032018 15 56 0.0 1.6 0.00 0.00 0.00 96 1034.5
20260906031514 15 56 0.0 0.0 0.00 0.00 0.00 96 1034.6
20260906031003 15 55 1.6 1.6 0.00 0.00 0.00 96 1034.4
20260906030457 15 58 0.0 1.6 0.00 0.00 0.00 96 1034.4
20260906025952 15 60 0.0 1.6 0.00 0.00 0.00 97 1034.6
20260906025446 15 60 0.0 0.0 0.00 0.00 0.00 97 1034.4
20260906024945 15 60 0.0 0.0 0.00 0.00 0.00 97 1034.4
20260906024445 14 61 0.0 0.0 0.00 0.00 0.00 97 1034.4
20260906023945 14 61 0.0 0.0 0.00 0.00 0.00 97 1034.3
20260906023441 15 61 0.0 0.0 0.00 0.00 0.00 97 1034.2
20260906022936 14 61 0.0 0.0 0.00 0.00 0.00 97 1034.3
20260906022431 15 61 0.0 0.0 0.00 0.00 0.00 96 1034.4
20260906021926 15 61 0.0 0.0 0.00 0.00 0.00 96 1034.3
20260906021426 15 61 0.0 0.0 0.00 0.00 0.00 96 1034.4
20260906020920 15 60 0.0 0.0 0.00 0.00 0.00 96 1034.4
20260906020415 15 61 0.0 0.0 0.00 0.00 0.00 96 1034.4
20260906015909 15 60 0.0 0.0 0.00 0.00 0.00 95 1034.2
20260906015409 15 60 0.0 0.0 0.00 0.00 0.00 95 1034.2
20260906014908 15 60 0.0 0.0 0.00 0.00 0.00 95 1034.1
20260906014403 16 58 0.0 0.0 0.00 0.00 0.00 95 1034.3
20260906013859 16 57 0.0 1.6 0.00 0.00 0.00 95 1034.2
20260906013354 16 57 0.0 0.0 0.00 0.00 0.00 95 1034.1
20260906012850 16 58 0.0 1.6 0.00 0.00 0.00 95 1034.2
20260906012344 16 59 1.6 1.6 0.00 0.00 0.00 95 1034.1
20260906011844 16 59 1.6 1.6 0.00 0.00 0.00 94 1034.2
20260906011339 16 59 0.0 1.6 0.00 0.00 0.00 94 1034.1
20260906010835 16 60 1.6 1.6 0.00 0.00 0.00 94 1034.0
20260906010331 16 61 1.6 1.6 0.00 0.00 0.00 94 1034.2
20260906005826 16 49 1.6 1.6 0.00 0.00 0.00 94 1034.0
20260906005325 16 55 1.6 3.2 0.00 0.00 0.00 95 1034.1
20260906004819 16 53 0.0 0.0 0.00 0.00 0.00 95 1033.8
20260906004319 16 53 1.6 1.6 0.00 0.00 0.00 95 1034.0
20260906003814 16 53 0.0 0.0 0.00 0.00 0.00 94 1033.9
20260906003309 16 52 1.6 1.6 0.00 0.00 0.00 94 1033.8
20260906002805 16 53 1.6 1.6 0.00 0.00 0.00 94 1033.9
20260906002306 16 55 1.6 1.6 0.00 0.00 0.00 93 1034.0
20260906001800 16 55 1.6 1.6 0.00 0.00 0.00 93 1034.0
20260906001255 16 55 0.0 0.0 0.00 0.00 0.00 92 1033.8
20260906000750 16 55 1.6 1.6 0.00 0.00 0.00 91 1033.9
20260906000250 17 55 0.0 0.0 0.00 0.00 0.00 90 1034.1
20260905235745 17 57 0.0 0.0 0.00 0.00 0.00 89 1033.9
20260905235244 17 56 1.6 1.6 0.00 0.00 0.00 89 1033.8
20260905234740 17 58 1.6 3.2 0.00 0.00 0.00 88 1033.9
20260905234235 17 56 1.6 1.6 0.00 0.00 0.00 88 1033.8
20260905233730 17 56 1.6 1.6 0.00 0.00 0.00 87 1033.7
20260905233230 17 58 1.6 1.6 0.00 0.00 0.00 86 1033.8
20260905232724 18 56 1.6 3.2 0.00 0.00 0.00 85 1033.7
20260905232220 18 57 1.6 3.2 0.00 0.00 0.00 84 1034.0
20260905231716 18 57 1.6 3.2 0.00 0.00 0.00 83 1033.8
20260905231212 18 54 3.2 3.2 0.00 0.00 0.00 82 1033.6
20260905230707 19 55 3.2 3.2 0.00 0.00 0.00 81 1034.0
20260905230205 19 339 8.0 8.0 0.00 0.00 0.00 81 1033.6
20260905225705 19 54 1.6 3.2 0.00 0.00 0.00 80 1033.6
20260905225159 20 53 3.2 3.2 0.00 0.00 0.00 79 1033.9
20260905224653 20 53 1.6 1.6 0.00 0.00 0.00 78 1033.8
20260905224148 20 54 0.0 1.6 0.00 0.00 0.00 78 1033.8
20260905223645 20 29 3.2 3.2 0.00 0.00 0.00 76 1033.7
20260905223142 20 35 3.2 3.2 0.00 0.00 0.00 77 1033.8
20260905222637 20 49 4.8 4.8 0.00 0.00 0.00 77 1033.9
20260905222132 19 28 1.6 3.2 0.00 0.00 0.00 79 1033.7
20260905221627 18 52 1.6 1.6 0.00 0.00 0.00 81 1033.8
20260905221124 19 19 3.2 3.2 0.00 0.00 0.00 79 1033.7
20260905220619 20 61 4.8 4.8 0.00 0.00 0.00 79 1033.8
20260905220115 20 18 4.8 4.8 0.00 0.00 0.00 78 1033.4